Weather History for Manitowoc, WI

Change the Weather History Date:

Tuesday, March 11, 2014

  Actual Average Record
Temperature  
Mean Temperature 39 °F -  
Max Temperature 45 °F 37 °F 66 °F (2012)
Min Temperature 32 °F 20 °F 1 °F (1979)
Degree Days  
Heating Degree Days 26    
Moisture  
Dew Point 30 °F    
Average Humidity 68    
Maximum Humidity 76    
Minimum Humidity 58    
Precipitation  
Precipitation 0.00 in - - ()
Sea Level Pressure  
Sea Level Pressure 29.82 in    
Wind  
Wind Speed 8 mph (NNW)    
Max Wind Speed 15 mph    
Max Gust Speed 21 mph    
Visibility 10 miles    
Events      
Averages and records for this station are not official NWS values.
T = Trace of Precipitation, MM = Missing Value Source: NWS Daily Summary

Daily Weather History Graph

Daily Weather History Graph

Search for Another Location

Airport:

Trip Planner

Search our weather history database for the weather conditions in past years. The results will help you decide how hot, cold, wet, or windy it might be!

Date:

Astronomy

Mar. 11, 2014 Rise Set
Actual Time 7:10 AM CDT 6:51 PM CDT
Civil Twilight 6:41 AM CDT 7:20 PM CDT
Nautical Twilight 6:07 AM CDT 7:54 PM CDT
Astronomical Twilight 5:34 AM CDT 8:28 PM CDT
Moon 2:20 PM CDT (3/11) 4:11 AM CDT (3/11)
Length of Visible Light 12h 39m
Length of Day
11h 41m
Waxing Gibbous, 78% of the Moon is Illuminated
Mar 11
Waxing Gibbous
Mar 16
Full
Mar 23
Last Quarter
Mar 30
New
Apr 7
First Quarter

Hourly Weather History & Observations

Time (CDT) Temp. Windchill Dew Point Humidity Pressure Visibility Wind Dir Wind Speed Gust Speed Precip Events Conditions
12:56 AM 45.0 °F 39.3 °F 30.9 °F 58% 29.69 in 10.0 mi WNW 11.5 mph - N/A   Mostly Cloudy
1:56 AM 45.0 °F 40.1 °F 32.0 °F 60% 29.69 in 10.0 mi WNW 9.2 mph - N/A   Clear
2:56 AM 44.1 °F 38.6 °F 32.0 °F 63% 29.70 in 10.0 mi WNW 10.4 mph - N/A   Mostly Cloudy
3:56 AM 43.0 °F 39.5 °F 30.9 °F 62% 29.70 in 10.0 mi West 5.8 mph - N/A   Overcast
4:56 AM 42.1 °F 37.7 °F 32.0 °F 67% 29.72 in 10.0 mi West 6.9 mph - N/A   Overcast
5:56 AM 41.0 °F 35.2 °F 32.0 °F 70% 29.74 in 10.0 mi West 9.2 mph - N/A   Overcast
6:56 AM 39.9 °F 35.8 °F 32.0 °F 73% 29.75 in 10.0 mi West 5.8 mph - N/A   Mostly Cloudy
7:56 AM 39.9 °F 35.1 °F 32.0 °F 73% 29.76 in 10.0 mi WNW 6.9 mph - N/A   Overcast
8:56 AM 41.0 °F 35.2 °F 30.9 °F 67% 29.78 in 10.0 mi NW 9.2 mph - N/A   Overcast
9:56 AM 41.0 °F 38.0 °F 32.0 °F 70% 29.78 in 10.0 mi NNW 4.6 mph - N/A   Overcast
10:56 AM 42.1 °F 37.7 °F 30.9 °F 65% 29.81 in 10.0 mi NNW 6.9 mph - N/A   Overcast
11:56 AM 43.0 °F 39.5 °F 30.0 °F 60% 29.83 in 10.0 mi NNW 5.8 mph - N/A   Overcast
12:56 PM 43.0 °F 38.2 °F 30.0 °F 60% 29.84 in 10.0 mi NNW 8.1 mph - N/A   Clear
1:56 PM 43.0 °F 39.5 °F 30.0 °F 60% 29.83 in 10.0 mi NNW 5.8 mph - N/A   Mostly Cloudy
2:56 PM 43.0 °F 38.8 °F 30.0 °F 60% 29.84 in 10.0 mi NE 6.9 mph - N/A   Overcast
3:56 PM 39.0 °F 34.8 °F 28.9 °F 67% 29.84 in 10.0 mi NNE 5.8 mph - N/A   Overcast
4:56 PM 37.9 °F 34.4 °F 28.9 °F 70% 29.86 in 10.0 mi North 4.6 mph - N/A   Overcast
5:56 PM 37.9 °F 33.5 °F 28.9 °F 70% 29.87 in 10.0 mi NE 5.8 mph - N/A   Overcast
6:56 PM 36.0 °F 31.1 °F 28.0 °F 73% 29.90 in 10.0 mi NE 5.8 mph - N/A   Overcast
7:56 PM 35.1 °F 27.4 °F 28.0 °F 76% 29.91 in 10.0 mi NE 10.4 mph 16.1 mph N/A   Mostly Cloudy
8:56 PM 34.0 °F 28.0 °F 27.0 °F 75% 29.93 in 10.0 mi NE 6.9 mph - N/A   Scattered Clouds
9:56 PM 34.0 °F 26.0 °F 26.1 °F 73% 29.95 in 10.0 mi ENE 10.4 mph - N/A   Mostly Cloudy
10:56 PM 33.1 °F 23.4 °F 26.1 °F 75% 29.94 in 10.0 mi NE 13.8 mph 20.7 mph N/A   Overcast
11:56 PM 32.0 °F 21.6 °F 24.1 °F 73% 29.94 in 10.0 mi NE 15.0 mph 20.7 mph N/A   Overcast